Regional Weather Roundup
Issued by NWS Goodland, KS

Home | Current Version | Previous Version | Text Only | Print | Product List | Glossary On
Versions: 1 2 3 4 5 6 7 8 9 10 11 12 13 14 15 16 17 18 19 20 21 22 23 24 25 26 27 28 29 30 31 32 33 34 35 36 37 38 39 40 41 42 43 44 45 46 47 48 49 50
000
ASUS43 KGLD 280108
RWRGLD

GOODLAND FORECAST AREA HOURLY WEATHER ROUNDUP
NATIONAL WEATHER SERVICE GOODLAND KS
700 PM MDT WED JUL 27 2016

...OFFICIAL OBSERVATIONS...

CITY           SKY/WX    TMP DP  RH WIND       PRES   REMARKS
GOODLAND KS    SUNNY     87  60  40 SE12      30.03F
HILL CITY KS   CLEAR     87  68  52 E7        29.98R
IMPERIAL NEB   PTSUNNY   85  59  41 NE13      30.06R
MCCOOK NEB     SUNNY     84  65  52 E13       30.02R
AKRON CO       CLOUDY    81  62  52 E7        30.13R
BURLINGTON CO  SUNNY     84  59  42 SE15      30.07S
LIMON CO       LGT RAIN  83  49  30 SE14      30.14R
$$

...UNOFFICIAL OBSERVATIONS...

CITY           SKY/WX    TMP DP  RH WIND       PRES   REMARKS
COLBY KS       MOSUNNY   86  66  51 E10       30.04R
LENORA KS        N/A     87  32  14 MISG        N/A
NORTON KS      CLEAR     88  57  35 E6        30.00R
SHARON SPRINGS   N/A     86  63  45 SE7         N/A
KIT CARSON CO    N/A     84  61  45 MISG        N/A
YUMA CO          N/A     81  65  57 CALM        N/A
$$



USA.gov is the U.S. government's official web portal to all federal, state and local government web resources and services.